Location: Unspecified
(0.0000°N, 0.0000°E)
Time: 13:54:17
(UTC+00:00)

JUGNU - Pass Details

Date: 18 February 2020
Orbit: 836 x 864 km, 20.0° (Epoch: 01 April)

Event Time Altitude Azimuth Distance (km) Brightness Sun altitude
Rises 18:42:53 0° 311° (NW) 3,366 ? -7.1°
Reaches altitude 10° 18:45:54 10° 324° (NW) 2,431 ? -7.8°
Maximum altitude 18:50:33 24° 17° (NNE) 1,641 ? -9.0°
Enters shadow 18:54:44 12° 67° (ENE) 2,300 ? -10.0°
